Regional Weather Roundup
Issued by NWS

Home | Current Version | Previous Version | Graphics & Text | Print | Product List | Glossary On
Versions: 1 2 3 4 5 6 7 8 9 10 11 12 13 14 15 16 17 18 19 20 21 22 23 24 25 26 27 28 29 30 31 32 33 34 35 36 37 38 39 40 41 42 43 44 45 46 47 48 49 50
000
ASUS43 KLSX 200607
RWRMO

WEATHER SUMMARY FOR MISSOURI
NATIONAL WEATHER SERVICE SPRINGFIELD MO
100 AM CDT WED AUG 20 2014

NOTE: "FAIR" INDICATES FEW OR NO CLOUDS BELOW 12,000 FEET WITH NO
       SIGNIFICANT WEATHER AND/OR OBSTRUCTIONS TO VISIBILITY.
       CURRENT SKY AND/OR WEATHER CONDITIONS ARE NOT AVAILABLE FOR
       CHILLICOTHE AND FARMINGTON.

MOZ001>031-035>038-043-044-053-054-200700-
...NORTHERN AND WESTERN MISSOURI...

CITY           SKY/WX    TMP DP  RH WIND       PRES   REMARKS
KANSAS CTY INT FAIR      75  70  84 S8        29.83R
6HR MIN TEMP:  75; 6HR MAX TEMP:  90;

KANSAS C DTWN  FAIR      83  69  62 SW7       29.82R
6HR MIN TEMP:  82; 6HR MAX TEMP:  93;

LEE`S SUMMIT   FAIR      80  70  71 SW9       29.85R
6HR MIN TEMP:  80; 6HR MAX TEMP:  89;

ST JOSEPH      FAIR      75  72  90 SE3       29.81S
6HR MIN TEMP:  73; 6HR MAX TEMP:  88;

CHILLICOTHE      N/A     74  72  93 CALM      29.85R
6HR MIN TEMP:  73; 6HR MAX TEMP:  89;

KIRKSVILLE     FAIR      70  68  93 CALM      29.85S
6HR MIN TEMP:  69; 6HR MAX TEMP:  84;


$$
MOZ066>068-077>081-088>096-101>105-200700-
...SOUTHWEST MISSOURI...

CITY           SKY/WX    TMP DP  RH WIND       PRES   REMARKS
SPRINGFIELD    FAIR      77  68  73 S7        29.90S
6HR MIN TEMP:  76; 6HR MAX TEMP:  92;

JOPLIN         FAIR      81  71  71 SW13      29.89R
6HR MIN TEMP:  80; 6HR MAX TEMP:  92;


$$
MOZ032>034-039>042-045>050-055>058-069>072-200700-
...CENTRAL MISSOURI...

CITY           SKY/WX    TMP DP  RH WIND       PRES   REMARKS
COLUMBIA       FAIR      72  70  93 SE8       29.86S
6HR MIN TEMP:  70; 6HR MAX TEMP:  86;

JEFFERSON CITY FAIR      74  71  91 CALM      29.85R
6HR MIN TEMP:  72; 6HR MAX TEMP:  89;

ROLLA          FAIR      74  67  78 SW6       29.87R
6HR MIN TEMP:  70; 6HR MAX TEMP:  87;

SEDALIA        FAIR      76  71  85 S7        29.86S
6HR MIN TEMP:  74; 6HR MAX TEMP:  86;

WHITEMAN AFB   FAIR      74  65  74 S5        29.85R
OSAGE BEACH    FAIR      73  70  88 CALM      29.87S

$$
MOZ051-052-059>065-200700-
...EAST CENTRAL MISSOURI...

CITY           SKY/WX    TMP DP  RH WIND       PRES   REMARKS
ST LOUIS INTL  FAIR      76  71  85 CALM      29.85
6HR MIN TEMP:  76; 6HR MAX TEMP:  87;

SPIRIT OF STL  FAIR      72  70  93 CALM      29.84R
6HR MIN TEMP:  71; 6HR MAX TEMP:  85;

ST CHARLES     FAIR      72  70  93 CALM      29.83R
6HR MIN TEMP:  71; 6HR MAX TEMP:  84;


$$
MOZ072>076-082>087-097>100-106>115-200700-
...SOUTH CENTRAL AND SOUTHEAST MISSOURI...

CITY           SKY/WX    TMP DP  RH WIND       PRES   REMARKS
CAPE GIRARDEAU FAIR      68  66  93 CALM      29.84S
6HR MIN TEMP:  68; 6HR MAX TEMP:  76;

FARMINGTON       N/A     70  68  94 CALM      29.88
POPLAR BLUFF   FAIR      79  70  74 SW5       29.84R
6HR MIN TEMP:  78; 6HR MAX TEMP:  87;

WEST PLAINS    FAIR      76  70  82 SW6       29.92S
6HR MIN TEMP:  76; 6HR MAX TEMP:  90;


$$



USA.gov is the U.S. government's official web portal to all federal, state and local government web resources and services.